• In Germany
  • List of Countries
  • For 7 days
  • Water Temperature
  • Satellite Maps
  • Weather Map
  • Weather Widgets
  • user-avatar
    Login

    Hourly Weather Solden

    Today, 26 September, Tuesday

    Time Temperature Precipitation Wind Pressure Humidity
    00:00 0°C° 0 mm 1 mps 583 mmHg 92%
    01:00 +1°C° 0 mm 1 mps 583 mmHg 93%
    02:00 +1°C° 0 mm 1 mps 583 mmHg 93%
    03:00 0°C° 0 mm 1 mps 583 mmHg 93%
    04:00 -1°C° 0 mm 0 mps 583 mmHg 93%
    05:00 0°C° 0 mm 1 mps 583 mmHg 92%
    06:00 +1°C° 0 mm 1 mps 583 mmHg 91%
    07:00 +2°C° 0 mm 1 mps 584 mmHg 88%
    08:00 +4°C° 0 mm 1 mps 585 mmHg 80%
    09:00 +6°C° 0 mm 1 mps 586 mmHg 72%
    10:00 +6°C° 0 mm 0 mps 587 mmHg 64%
    11:00 +8°C° 0 mm 1 mps 587 mmHg 62%
    12:00 +8°C° 0 mm 1 mps 587 mmHg 60%
    13:00 +9°C° 0 mm 1 mps 587 mmHg 58%
    14:00 +9°C° 0.1 mm 1 mps 587 mmHg 60%
    15:00 +8°C° 0.1 mm 1 mps 587 mmHg 62%
    16:00 +8°C° 0.1 mm 1 mps 587 mmHg 64%
    17:00 +6°C° 0 mm 1 mps 586 mmHg 72%
    18:00 +4°C° 0 mm 1 mps 586 mmHg 80%
    19:00 +1°C° 0 mm 0 mps 585 mmHg 88%
    20:00 +1°C° 0 mm 0 mps 585 mmHg 89%
    21:00 +2°C° 0 mm 1 mps 585 mmHg 90%
    22:00 +2°C° 0 mm 1 mps 585 mmHg 91%
    23:00 +1°C° 0 mm 1 mps 585 mmHg 91%

    Tomorrow, 27 September, Wednesday

    Time Temperature Precipitation Wind Pressure Humidity
    00:00 +1°C° 0 mm 1 mps 585 mmHg 91%
    01:00 +1°C° 0 mm 1 mps 585 mmHg 91%
    02:00 +1°C° 0 mm 1 mps 585 mmHg 91%
    03:00 0°C° 0 mm 1 mps 585 mmHg 91%
    04:00 0°C° 0 mm 1 mps 584 mmHg 91%
    05:00 +1°C° 0 mm 1 mps 585 mmHg 89%
    06:00 +1°C° 0 mm 1 mps 585 mmHg 87%
    07:00 +1°C° 0 mm 1 mps 586 mmHg 85%
    08:00 +4°C° 0 mm 1 mps 587 mmHg 78%
    09:00 +6°C° 0 mm 1 mps 588 mmHg 70%
    10:00 +8°C° 0 mm 1 mps 589 mmHg 62%
    11:00 +9°C° 0 mm 1 mps 589 mmHg 60%
    12:00 +10°C° 0 mm 1 mps 589 mmHg 58%
    13:00 +10°C° 0 mm 1 mps 589 mmHg 56%
    14:00 +10°C° 0.1 mm 1 mps 589 mmHg 58%
    15:00 +9°C° 0.1 mm 1 mps 589 mmHg 61%
    16:00 +9°C° 0.1 mm 1 mps 589 mmHg 64%
    17:00 +7°C° 0 mm 1 mps 588 mmHg 72%
    18:00 +5°C° 0 mm 1 mps 587 mmHg 80%
    19:00 +3°C° 0 mm 1 mps 586 mmHg 89%
    20:00 +3°C° 0 mm 1 mps 586 mmHg 89%
    21:00 +3°C° 0 mm 1 mps 587 mmHg 90%
    22:00 +2°C° 0 mm 1 mps 587 mmHg 90%
    23:00 +2°C° 0 mm 1 mps 587 mmHg 91%

    Day after tomorrow, 28 September, Thursday

    Time Temperature Precipitation Wind Pressure Humidity
    00:00 +2°C° 0 mm 1 mps 587 mmHg 91%
    01:00 +2°C° 0 mm 1 mps 587 mmHg 91%
    02:00 +1°C° 0 mm 1 mps 587 mmHg 91%
    03:00 +1°C° 0 mm 1 mps 586 mmHg 90%
    04:00 +1°C° 0 mm 1 mps 586 mmHg 90%
    05:00 +1°C° 0 mm 1 mps 587 mmHg 88%
    06:00 +2°C° 0 mm 1 mps 587 mmHg 87%
    07:00 +2°C° 0 mm 1 mps 587 mmHg 85%
    08:00 +5°C° 0 mm 1 mps 589 mmHg 76%
    09:00 +7°C° 0 mm 1 mps 590 mmHg 67%
    10:00 +10°C° 0 mm 1 mps 591 mmHg 58%
    11:00 +11°C° 0 mm 1 mps 591 mmHg 55%
    12:00 +11°C° 0 mm 1 mps 592 mmHg 53%
    13:00 +12°C° 0 mm 1 mps 592 mmHg 50%
    14:00 +12°C° 0 mm 1 mps 591 mmHg 53%
    15:00 +11°C° 0 mm 1 mps 591 mmHg 56%
    16:00 +11°C° 0 mm 1 mps 591 mmHg 59%
    17:00 +8°C° 0 mm 1 mps 590 mmHg 68%
    18:00 +6°C° 0 mm 1 mps 589 mmHg 77%
    19:00 +3°C° 0 mm 1 mps 588 mmHg 87%
    20:00 +2°C° 0 mm 0 mps 588 mmHg 88%
    21:00 +2°C° 0 mm 0 mps 588 mmHg 89%
    22:00 +1°C° 0 mm 0 mps 588 mmHg 91%
    23:00 +1°C° 0 mm 0 mps 588 mmHg 91%

    29 September, Friday

    Time Temperature Precipitation Wind Pressure Humidity
    00:00 +2°C° 0 mm 1 mps 587 mmHg 91%
    01:00 +2°C° 0 mm 1 mps 587 mmHg 91%
    02:00 +2°C° 0 mm 1 mps 587 mmHg 91%
    03:00 +2°C° 0 mm 1 mps 587 mmHg 90%
    04:00 +2°C° 0 mm 1 mps 587 mmHg 90%
    05:00 +2°C° 0 mm 1 mps 587 mmHg 89%
    06:00 +3°C° 0 mm 1 mps 587 mmHg 87%
    07:00 +3°C° 0 mm 1 mps 587 mmHg 86%
    08:00 +5°C° 0 mm 1 mps 588 mmHg 75%
    09:00 +8°C° 0 mm 1 mps 589 mmHg 65%
    10:00 +10°C° 0 mm 1 mps 591 mmHg 55%
    11:00 +11°C° 0 mm 1 mps 590 mmHg 54%
    12:00 +11°C° 0 mm 1 mps 590 mmHg 53%
    13:00 +11°C° 0 mm 1 mps 590 mmHg 52%
    14:00 +10°C° 0.3 mm 1 mps 590 mmHg 59%
    15:00 +10°C° 0.3 mm 1 mps 589 mmHg 65%
    16:00 +9°C° 0.3 mm 1 mps 589 mmHg 71%
    17:00 +7°C° 0.5 mm 1 mps 588 mmHg 77%
    18:00 +6°C° 0.5 mm 1 mps 588 mmHg 83%
    19:00 +5°C° 0.5 mm 1 mps 587 mmHg 89%
    20:00 +5°C° 0.2 mm 1 mps 587 mmHg 90%
    21:00 +3°C° 0.2 mm 0 mps 587 mmHg 91%
    22:00 +3°C° 0.2 mm 0 mps 587 mmHg 92%
    23:00 +2°C° 0 mm 0 mps 586 mmHg 92%

    30 September, Saturday

    Time Temperature Precipitation Wind Pressure Humidity
    00:00 +2°C° 0 mm 1 mps 586 mmHg 93%
    01:00 +2°C° 0 mm 1 mps 585 mmHg 93%
    02:00 +2°C° 0 mm 1 mps 585 mmHg 93%
    03:00 +1°C° 0 mm 1 mps 585 mmHg 92%
    04:00 +1°C° 0 mm 1 mps 584 mmHg 92%
    05:00 +1°C° 0 mm 1 mps 584 mmHg 91%
    06:00 +2°C° 0 mm 1 mps 585 mmHg 90%
    07:00 +2°C° 0 mm 1 mps 585 mmHg 89%
    08:00 +5°C° 0 mm 1 mps 586 mmHg 80%
    09:00 +7°C° 0 mm 1 mps 587 mmHg 71%
    10:00 +9°C° 0 mm 0 mps 588 mmHg 62%
    11:00 +10°C° 0 mm 1 mps 588 mmHg 59%
    12:00 +11°C° 0 mm 1 mps 588 mmHg 56%
    13:00 +11°C° 0 mm 1 mps 588 mmHg 54%
    14:00 +11°C° 0.1 mm 1 mps 587 mmHg 57%
    15:00 +10°C° 0.1 mm 1 mps 587 mmHg 60%
    16:00 +9°C° 0.1 mm 2 mps 586 mmHg 63%
    17:00 +8°C° 0.1 mm 1 mps 586 mmHg 72%
    18:00 +6°C° 0.1 mm 1 mps 585 mmHg 82%
    19:00 +4°C° 0.1 mm 1 mps 584 mmHg 91%
    20:00 +4°C° 0.1 mm 1 mps 584 mmHg 92%
    21:00 +2°C° 0.1 mm 0 mps 584 mmHg 93%
    22:00 +2°C° 0.1 mm 0 mps 584 mmHg 94%
    23:00 +2°C° 0.1 mm 0 mps 584 mmHg 95%

    1 October, Sunday

    Time Temperature Precipitation Wind Pressure Humidity
    00:00 +2°C° 0.1 mm 0 mps 583 mmHg 95%
    01:00 +2°C° 0.1 mm 0 mps 583 mmHg 95%
    02:00 +2°C° 0.1 mm 0 mps 583 mmHg 95%
    03:00 +1°C° 0.1 mm 0 mps 583 mmHg 95%
    04:00 +1°C° 0.1 mm 0 mps 583 mmHg 95%
    05:00 +1°C° 0 mm 0 mps 583 mmHg 94%
    06:00 +2°C° 0 mm 0 mps 583 mmHg 93%
    07:00 +2°C° 0 mm 0 mps 584 mmHg 93%
    08:00 +4°C° 0 mm 0 mps 584 mmHg 84%
    09:00 +7°C° 0 mm 1 mps 585 mmHg 76%
    10:00 +9°C° 0 mm 1 mps 586 mmHg 68%
    11:00 +9°C° 0.1 mm 1 mps 587 mmHg 65%
    12:00 +9°C° 0.1 mm 1 mps 587 mmHg 63%
    13:00 +10°C° 0.1 mm 1 mps 587 mmHg 61%
    14:00 +8°C° 0.1 mm 2 mps 587 mmHg 63%
    15:00 +8°C° 0.1 mm 2 mps 586 mmHg 65%
    16:00 +8°C° 0.1 mm 2 mps 586 mmHg 67%
    17:00 +7°C° 0 mm 1 mps 586 mmHg 75%
    18:00 +5°C° 0 mm 1 mps 585 mmHg 84%
    19:00 +3°C° 0 mm 1 mps 584 mmHg 93%
    20:00 +3°C° 0 mm 1 mps 585 mmHg 93%
    21:00 +3°C° 0 mm 1 mps 585 mmHg 94%
    22:00 +2°C° 0 mm 0 mps 585 mmHg 95%
    23:00 +1°C° 0 mm 0 mps 585 mmHg 95%
    Show more